H1 CPF 2 NER 2021 5 29 9 149 01 glonass121 H2 1000702 9121 36401 2021 5 29 0 0 0 2021 6 1 23 45 0 900 1 1 0 0 0 1 H9 10 0 59363 0.00000 0 -17924851.179 16476489.977 7419600.454 10 0 59363 900.00000 0 -17090053.349 15720834.733 10422563.154 10 0 59363 1800.00000 0 -16117115.788 14606219.785 13221742.158 10 0 59363 2700.00000 0 -15067957.955 13135645.176 15762464.934 10 0 59363 3600.00000 0 -14004404.621 11325701.668 17995173.535 10 0 59363 4500.00000 0 -12985474.771 9206106.455 19876402.914 10 0 59363 5400.00000 0 -12064812.353 6818688.494 21369631.783 10 0 59363 6300.00000 0 -11288369.022 4215867.039 22445989.173 10 0 59363 7200.00000 0 -10692437.316 1458688.959 23084803.400 10 0 59363 8100.00000 0 -10302116.750 -1385491.300 23273984.050 10 0 59363 9000.00000 0 -10130276.083 -4245590.584 23010231.279 10 0 59363 9900.00000 0 -10177053.216 -7049525.914 22299070.535 10 0 59363 10800.00000 0 -10429911.016 -9726979.291 21154714.354 10 0 59363 11700.00000 0 -10864243.654 -12212083.750 19599756.250 10 0 59363 12600.00000 0 -11444504.974 -14445920.070 17664704.820 10 0 59363 13500.00000 0 -12125808.823 -16378722.486 15387368.968 10 0 59363 14400.00000 0 -12855931.973 -17971704.412 12812107.615 10 0 59363 15300.00000 0 -13577634.124 -19198431.420 9988959.464 10 0 59363 16200.00000 0 -14231196.910 -20045687.823 6972670.177 10 0 59363 17100.00000 0 -14757075.440 -20513804.175 3821635.767 10 0 59363 18000.00000 0 -15098551.833 -20616435.072 596782.266 10 0 59363 18900.00000 0 -15204280.659 -20379799.082 -2639597.572 10 0 59363 19800.00000 0 -15030620.985 -19841414.308 -5825029.356 10 0 59363 20700.00000 0 -14543658.801 -19048383.360 -8898042.468 10 0 59363 21600.00000 0 -13720836.299 -18055299.514 -11799334.743 10 0 59363 22500.00000 0 -12552120.566 -16921860.915 -14472895.828 10 0 59363 23400.00000 0 -11040662.863 -15710291.260 -16867069.337 10 0 59363 24300.00000 0 -9202920.190 -14482673.088 -18935535.152 10 0 59363 25200.00000 0 -7068232.397 -13298303.256 -20638194.410 10 0 59363 26100.00000 0 -4677870.067 -12211179.404 -21941941.251 10 0 59363 27000.00000 0 -2083589.696 -11267721.085 -22821307.089 10 0 59363 27900.00000 0 654247.361 -10504820.005 -23258965.098 10 0 59363 28800.00000 0 3468917.622 -9948300.883 -23246084.578 10 0 59363 29700.00000 0 6289850.316 -9611858.048 -22782527.191 10 0 59363 30600.00000 0 9045313.020 -9496513.808 -21876879.487 10 0 59363 31500.00000 0 11665158.753 -9590623.448 -20546318.823 10 0 59363 32400.00000 0 14083521.830 -9870429.183 -18816312.669 10 0 59363 33300.00000 0 16241350.674 -10301142.418 -16720154.409 10 0 59363 34200.00000 0 18088671.412 -10838511.269 -14298342.072 10 0 59363 35100.00000 0 19586486.369 -11430809.122 -11597809.805 10 0 59363 36000.00000 0 20708226.049 -12021161.461 -8671025.311 10 0 59363 36900.00000 0 21440691.431 -12550112.711 -5574969.956 10 0 59363 37800.00000 0 21784444.836 -12958323.586 -2370021.296 10 0 59363 38700.00000 0 21753631.155 -13189282.777 881239.487 10 0 59363 39600.00000 0 21375235.863 -13191915.369 4115270.273 10 0 59363 40500.00000 0 20687810.986 -12922974.188 7268834.421 10 0 59363 41400.00000 0 19739723.630 -12349109.334 10280263.536 10 0 59363 42300.00000 0 18587002.752 -11448525.036 13090689.031 10 0 59363 43200.00000 0 17290877.646 -10212151.045 15645215.747 10 0 59363 44100.00000 0 15915114.926 -8644277.070 17894012.372 10 0 59363 45000.00000 0 14523269.446 -6762622.551 19793295.528 10 0 59363 45900.00000 0 13175967.743 -4597838.680 21306187.281 10 0 59363 46800.00000 0 11928340.529 -2192464.338 22403429.105 10 0 59363 47700.00000 0 10827713.495 400618.875 23063938.820 10 0 59363 48600.00000 0 9911653.652 3120166.148 23275200.910 10 0 59363 49500.00000 0 9206452.341 5898899.086 23033484.351 10 0 59363 50400.00000 0 8726106.690 8666086.712 22343885.866 10 0 59363 51300.00000 0 8471839.571 11350269.393 21220200.089 10 0 59363 52200.00000 0 8432174.937 13882012.098 19684621.486 10 0 59363 53100.00000 0 8583562.043 16196572.964 17767286.023 10 0 59363 54000.00000 0 8891519.037 18236377.682 15505663.337 10 0 59363 54900.00000 0 9312245.130 19953198.937 12943812.670 10 0 59363 55800.00000 0 9794631.460 21309952.967 10131518.033 10 0 59363 56700.00000 0 10282584.821 22282041.594 7123319.894 10 0 59363 57600.00000 0 10717566.077 22858187.034 3977462.135 10 0 59363 58500.00000 0 11041236.852 23040727.729 754774.307 10 0 59363 59400.00000 0 11198104.180 22845365.485 -2482490.101 10 0 59363 60300.00000 0 11138053.317 22300376.474 -5671838.168 10 0 59363 61200.00000 0 10818663.902 21445320.226 -8751723.416 10 0 59363 62100.00000 0 10207213.654 20329300.936 -11662711.933 10 0 59363 63000.00000 0 9282286.630 19008853.248 -14348608.159 10 0 59363 63900.00000 0 8034919.131 17545539.668 -16757520.415 10 0 59363 64800.00000 0 6469234.973 16003358.233 -18842847.444 10 0 59363 65700.00000 0 4602542.326 14446066.670 -20564168.505 10 0 59363 66600.00000 0 2464886.030 12934532.701 -21888020.924 10 0 59363 67500.00000 0 98071.168 11524219.266 -22788550.886 10 0 59363 68400.00000 0 -2445804.959 10262908.235 -23248024.974 10 0 59363 69300.00000 0 -5106255.086 9188756.974 -23257192.065 10 0 59363 70200.00000 0 -7816663.225 8328768.961 -22815487.447 10 0 59363 71100.00000 0 -10506814.401 7697743.202 -21931073.452 10 0 59363 72000.00000 0 -13105590.493 7297747.957 -20620713.562 10 0 59363 72900.00000 0 -15543722.078 7118142.882 -18909479.862 10 0 59363 73800.00000 0 -17756482.698 7136150.956 -16830296.756 10 0 59363 74700.00000 0 -19686213.029 7317958.507 -14423327.222 10 0 59363 75600.00000 0 -21284568.547 7620298.940 -11735211.241 10 0 59363 76500.00000 0 -22514394.788 7992454.710 -8818169.441 10 0 59363 77400.00000 0 -23351149.212 8378593.442 -5728988.491 10 0 59363 78300.00000 0 -23783807.505 8720338.825 -2527907.859 10 0 59363 79200.00000 0 -23815213.917 8959465.878 722569.699 10 0 59363 80100.00000 0 -23461859.159 9040603.966 3958919.048 10 0 59363 81000.00000 0 -22753094.335 8913829.873 7117858.627 10 0 59363 81900.00000 0 -21729814.173 8537037.598 10137614.092 10 0 59363 82800.00000 0 -20442666.178 7877981.039 12959152.062 10 0 59363 83700.00000 0 -18949863.270 6915900.057 15527357.184 10 0 59363 84600.00000 0 -17314694.708 5642658.698 17792127.172 10 0 59363 85500.00000 0 -15602843.144 4063345.993 19709362.556 10 0 59364 0.00000 0 -13879623.568 2196313.430 21241830.755 10 0 59364 900.00000 0 -12207262.802 72647.308 22359887.456 10 0 59364 1800.00000 0 -10642334.914 -2264899.690 23042041.346 10 0 59364 2700.00000 0 -9233462.055 -4763473.124 23275352.787 10 0 59364 3600.00000 0 -8019375.116 -7362108.987 23055660.169 10 0 59364 4500.00000 0 -7027415.189 -9994069.354 22387631.674 10 0 59364 5400.00000 0 -6272535.542 -12589422.525 21284643.820 10 0 59364 6300.00000 0 -5756842.861 -15077759.516 19768491.429 10 0 59364 7200.00000 0 -5469693.423 -17390933.735 17868936.867 10 0 59364 8100.00000 0 -5388336.472 -19465710.636 15623109.196 10 0 59364 9000.00000 0 -5479074.421 -21246218.684 13074766.359 10 0 59364 9900.00000 0 -5698888.368 -22686101.750 10273435.796 10 0 59364 10800.00000 0 -5997458.512 -23750286.036 7273450.695 10 0 59364 11700.00000 0 -6319493.373 -24416290.852 4132900.553 10 0 59364 12600.00000 0 -6607269.496 -24675031.439 912516.042 10 0 59364 13500.00000 0 -6803275.283 -24531082.999 -2325491.122 10 0 59364 14400.00000 0 -6852848.791 -24002397.012 -5518612.127 10 0 59364 15300.00000 0 -6706700.022 -23119483.068 -8605227.380 10 0 59364 16200.00000 0 -6323213.207 -21924090.984 -11525774.074 10 0 59364 17100.00000 0 -5670433.720 -20467448.002 -14223874.365 10 0 59364 18000.00000 0 -4727657.129 -18808123.641 -16647404.205 10 0 59364 18900.00000 0 -3486553.957 -17009609.670 -18749484.056 10 0 59364 19800.00000 0 -1951782.344 -15137714.027 -20489373.943 10 0 59364 20700.00000 0 -141061.496 -13257875.129 -21833256.747 10 0 59364 21600.00000 0 1915299.703 -11432506.289 -22754895.378 10 0 59364 22500.00000 0 4175402.422 -9718479.038 -23236151.314 10 0 59364 23400.00000 0 6587247.989 -8164848.987 -23267353.981 10 0 59364 24300.00000 0 9090660.264 -6810918.417 -22847512.735 10 0 59364 25200.00000 0 11619564.051 -5684716.607 -21984365.613 10 0 59364 26100.00000 0 14104527.949 -4801962.326 -20694261.646 10 0 59364 27000.00000 0 16475468.329 -4165553.437 -19001876.471 10 0 59364 27900.00000 0 18664403.295 -3765606.937 -16939763.965 10 0 59364 28800.00000 0 20608142.089 -3580049.917 -14547750.031 10 0 59364 29700.00000 0 22250796.984 -3575738.518 -11872177.977 10 0 59364 30600.00000 0 23546010.917 -3710059.231 -8965018.393 10 0 59364 31500.00000 0 24458805.152 -3932945.720 -5882859.902 10 0 59364 32400.00000 0 24966966.748 -4189225.763 -2685800.224 10 0 59364 33300.00000 0 25061914.812 -4421197.815 563740.149 10 0 59364 34200.00000 0 24749006.761 -4571326.006 3802256.941 10 0 59364 35100.00000 0 24047270.101 -4584936.460 6966427.432 10 0 59364 36000.00000 0 22988570.353 -4412797.335 9994374.836 10 0 59364 36900.00000 0 21616250.527 -4013469.732 12826904.125 10 0 59364 37800.00000 0 19983300.865 -3355326.610 15408682.463 10 0 59364 38700.00000 0 18150138.025 -2418151.479 17689338.821 10 0 59364 39600.00000 0 16182089.891 -1194247.292 19624459.369 10 0 59364 40500.00000 0 14146694.548 310992.351 21176458.165 10 0 59364 41400.00000 0 12110929.437 2079074.047 22315305.788 10 0 59364 42300.00000 0 10138488.975 4078957.118 23019102.102 10 0 59364 43200.00000 0 8287225.823 6268143.461 23274483.194 10 0 59364 44100.00000 0 6606863.001 8594257.372 23076856.228 10 0 59364 45000.00000 0 5137071.563 10997047.477 22430459.775 10 0 59364 45900.00000 0 3905992.128 13410725.583 21348250.737 10 0 59364 46800.00000 0 2929259.105 15766543.749 19851622.426 10 0 59364 47700.00000 0 2209564.886 17995501.536 17969961.436 10 0 59364 48600.00000 0 1736778.399 20031070.879 15740053.836 10 0 59364 49500.00000 0 1488609.195 21811826.018 13205353.684 10 0 59364 50400.00000 0 1431785.893 23283870.512 10415129.156 10 0 59364 51300.00000 0 1523696.695 24402962.422 7423503.402 10 0 59364 52200.00000 0 1714421.126 25136251.625 4288408.764 10 0 59364 53100.00000 0 1949066.602 25463559.408 1070474.310 10 0 59364 54000.00000 0 2170311.353 25378149.517 -2168132.669 10 0 59364 54900.00000 0 2321047.373 24886960.594 -5364889.976 10 0 59364 55800.00000 0 2347013.400 24010291.823 -8458107.230 10 0 59364 56700.00000 0 2199308.677 22780955.731 -11388094.823 10 0 59364 57600.00000 0 1836683.319 21242933.445 -14098294.475 10 0 59364 58500.00000 0 1227510.346 19449587.699 -16536351.365 10 0 59364 59400.00000 0 351357.283 17461506.547 -18655109.026 10 0 59364 60300.00000 0 -799908.668 15344065.533 -20413509.401 10 0 59364 61200.00000 0 -2221529.063 13164807.458 -21777381.881 10 0 59364 62100.00000 0 -3895802.963 10990746.351 -22720106.874 10 0 59364 63000.00000 0 -5792580.878 8885705.521 -23223141.325 10 0 59364 63900.00000 0 -7870286.658 6907798.704 -23276395.531 10 0 59364 64800.00000 0 -10077428.568 5107157.935 -22878452.935 10 0 59364 65700.00000 0 -12354540.461 3524002.314 -22036626.923 10 0 59364 66600.00000 0 -14636475.650 2187128.590 -20766851.309 10 0 59364 67500.00000 0 -16854960.878 1112887.588 -19093404.079 10 0 59364 68400.00000 0 -18941305.904 304690.892 -17048466.974 10 0 59364 69300.00000 0 -20829156.499 -246929.641 -14671526.855 10 0 59364 70200.00000 0 -22457175.587 -563710.094 -12008628.133 10 0 59364 71100.00000 0 -23771539.083 -678514.615 -9111488.958 10 0 59364 72000.00000 0 -24728139.538 -633714.386 -6036497.391 10 0 59364 72900.00000 0 -25294402.370 -479153.704 -2843606.853 10 0 59364 73800.00000 0 -25450635.366 -269789.926 404847.004 10 0 59364 74700.00000 0 -25190851.805 -63108.800 3645383.330 10 0 59364 75600.00000 0 -24523030.314 83572.719 6814640.807 10 0 59364 76500.00000 0 -23468799.025 115798.751 9850642.743 10 0 59364 77400.00000 0 -22062556.922 -15455.710 12694034.948 10 0 59364 78300.00000 0 -20350069.964 -351449.742 15289269.486 10 0 59364 79200.00000 0 -18386602.619 -923678.149 17585708.783 10 0 59364 80100.00000 0 -16234665.611 -1752296.644 19538626.621 10 0 59364 81000.00000 0 -13961477.130 -2845038.682 21110085.313 10 0 59364 81900.00000 0 -11636246.582 -4196670.219 22269671.631 10 0 59364 82800.00000 0 -9327397.004 -5789005.047 22995077.468 10 0 59364 83700.00000 0 -7099843.917 -7591479.051 23272515.052 10 0 59364 84600.00000 0 -5012444.925 -9562257.745 23096960.358 10 0 59364 85500.00000 0 -3115726.220 -11649828.793 22472221.989 10 0 59365 0.00000 0 -1449979.257 -13795011.088 21410836.581 10 0 59365 900.00000 0 -43804.647 -15933295.037 19933794.881 10 0 59365 1800.00000 0 1086839.787 -17997415.014 18070106.465 10 0 59365 2700.00000 0 1939049.713 -19920046.393 15856212.871 10 0 59365 3600.00000 0 2522832.045 -21636515.210 13335262.511 10 0 59365 4500.00000 0 2860418.340 -23087408.077 10556262.325 10 0 59365 5400.00000 0 2985066.508 -24220975.411 7573123.304 10 0 59365 6300.00000 0 2939403.564 -24995229.735 4443618.395 10 0 59365 7200.00000 0 2773380.747 -25379653.819 1228272.728 10 0 59365 8100.00000 0 2541927.736 -25356449.725 -2010793.202 10 0 59365 9000.00000 0 2302404.553 -24921278.666 -5211046.237 10 0 59365 9900.00000 0 2111957.473 -24083462.415 -8310727.655 10 0 59365 10800.00000 0 2024888.854 -22865638.779 -11250023.538 10 0 59365 11700.00000 0 2090149.925 -21302885.690 -13972197.669 10 0 59365 12600.00000 0 2349060.397 -19441349.791 -16424666.937 10 0 59365 13500.00000 0 2833349.536 -17336435.265 -18560000.355 10 0 59365 14400.00000 0 3563600.383 -15050626.260 -20336824.042 10 0 59365 15300.00000 0 4548162.627 -12651031.055 -21720615.912 10 0 59365 16200.00000 0 5782580.858 -10206747.402 -22684375.572 10 0 59365 17100.00000 0 7249564.272 -7786155.886 -23209156.755 10 0 59365 18000.00000 0 8919501.983 -5454251.567 -23284451.530 10 0 59365 18900.00000 0 10751505.947 -3270123.038 -22908417.895 10 0 59365 19800.00000 0 12694941.746 -1284682.671 -22087944.608 10 0 59365 20700.00000 0 14691387.031 461257.604 -20838549.858 10 0 59365 21600.00000 0 16676939.130 1938484.295 -19184113.133 10 0 59365 22500.00000 0 18584778.000 3130390.368 -17156442.747 10 0 59365 23400.00000 0 20347878.804 4033449.402 -14794684.782 10 0 59365 24300.00000 0 21901761.000 4657134.189 -12144582.540 10 0 59365 25200.00000 0 23187157.958 5023281.457 -9257599.081 10 0 59365 26100.00000 0 24152493.184 5164928.127 -6189918.846 10 0 59365 27000.00000 0 24756056.561 5124667.597 -3001347.572 10 0 59365 27900.00000 0 24967785.952 4952595.755 245867.513 10 0 59365 28800.00000 0 24770576.012 4703934.802 3488272.671 10 0 59365 29700.00000 0 24161056.262 4436437.618 6662471.601 10 0 59365 30600.00000 0 23149803.457 4207685.517 9706391.148 10 0 59365 31500.00000 0 21760978.082 4072397.137 12560521.111 10 0 59365 32400.00000 0 20031400.052 4079865.979 15169101.240 10 0 59365 33300.00000 0 18009103.295 4271638.274 17481229.822 10 0 59365 34200.00000 0 15751431.703 4679532.114 19451870.205 10 0 59365 35100.00000 0 13322758.573 5324083.458 21042734.500 10 0 59365 36000.00000 0 10791927.658 6213485.600 22223026.777 10 0 59365 36900.00000 0 8229525.349 7343066.808 22970031.598 10 0 59365 37800.00000 0 5705099.882 8695327.323 23269537.535 10 0 59365 38700.00000 0 3284444.729 10240532.711 23116089.074 10 0 59365 39600.00000 0 1027059.694 11937836.724 22513064.072 10 0 59365 40500.00000 0 -1016105.472 13736884.619 21472577.564 10 0 59365 41400.00000 0 -2804532.939 15579827.936 20015216.115 10 0 59365 42300.00000 0 -4309568.543 17403664.913 18169610.078 10 0 59365 43200.00000 0 -5515347.340 19142807.800 15971853.994 10 0 59365 44100.00000 0 -6419178.317 20731769.575 13464787.905 10 0 59365 45000.00000 0 -7031376.093 22107858.213 10697154.654 10 0 59365 45900.00000 0 -7374550.425 23213767.135 7722650.124 10 0 59365 46800.00000 0 -7482386.379 23999955.251 4598884.924 10 0 59365 47700.00000 0 -7397968.639 24426719.146 1386277.350 10 0 59365 48600.00000 0 -7171721.759 24465872.962 -1853101.701 10 0 59365 49500.00000 0 -6859053.376 24101967.772 -5056710.766 10 0 59365 50400.00000 0 -6517799.090 23333001.155 -8162725.264 10 0 59365 51300.00000 0 -6205575.405 22170588.394 -11111209.215 10 0 59365 52200.00000 0 -5977150.544 20639588.487 -13845250.468 10 0 59365 53100.00000 0 -5881941.979 18777200.137 -16312039.351 10 0 59365 54000.00000 0 -5961744.322 16631564.092 -18463871.822 10 0 59365 54900.00000 0 -6248781.895 14259928.059 -20259059.386 10 0 59365 55800.00000 0 -6764167.262 11726447.980 -21662729.465 10 0 59365 56700.00000 0 -7516830.820 9099714.231 -22647501.636 10 0 59365 57600.00000 0 -8502967.639 6450102.497 -23194026.952 10 0 59365 58500.00000 0 -9706026.968 3847056.688 -23291379.544 10 0 59365 59400.00000 0 -11097247.825 1356414.432 -22937291.939 10 0 59365 60300.00000 0 -12636721.786 -962115.384 -22138227.902 10 0 59365 61200.00000 0 -14274942.127 -3057218.874 -20909289.216 10 0 59365 62100.00000 0 -15954777.981 -4887892.901 -19273955.677 10 0 59365 63000.00000 0 -17613793.827 -6424929.655 -17263660.564 10 0 59365 63900.00000 0 -19186819.129 -7651906.574 -14917207.195 10 0 59365 64800.00000 0 -20608661.398 -8565638.463 -12280035.485 10 0 59365 65700.00000 0 -21816848.603 -9176071.010 -9403350.890 10 0 59365 66600.00000 0 -22754284.292 -9505618.558 -6343131.580 10 0 59365 67500.00000 0 -23371701.448 -9587973.048 -3159032.862 10 0 59365 68400.00000 0 -23629808.751 -9466434.152 86789.258 10 0 59365 69300.00000 0 -23501035.478 -9191831.845 3330910.947 10 0 59365 70200.00000 0 -22970798.279 -8820130.948 6509903.720 10 0 59365 71100.00000 0 -22038233.633 -8409821.542 9561600.708 10 0 59365 72000.00000 0 -20716363.145 -8019208.807 12426338.363 10 0 59365 72900.00000 0 -19031683.736 -7703720.459 15048146.644 10 0 59365 73800.00000 0 -17023199.927 -7513349.053 17375861.980 10 0 59365 74700.00000 0 -14740939.973 -7490340.267 19364139.282 10 0 59365 75600.00000 0 -12244019.841 -7667227.095 20974342.065 10 0 59365 76500.00000 0 -9598338.335 -8065294.265 22175292.885 10 0 59365 77400.00000 0 -6874002.210 -8693537.996 22943869.708 10 0 59365 78300.00000 0 -4142590.856 -9548164.336 23265437.727 10 0 59365 79200.00000 0 -1474376.124 -10612645.798 23134109.795 10 0 59365 80100.00000 0 1064386.144 -11858332.010 22552832.493 10 0 59365 81000.00000 0 3413980.479 -13245586.478 21533298.416 10 0 59365 81900.00000 0 5523468.402 -14725399.631 20095688.725 10 0 59365 82800.00000 0 7352546.487 -16241408.536 18268253.148 10 0 59365 83700.00000 0 8872951.685 -17732237.247 16086737.549 10 0 59365 84600.00000 0 10069359.088 -19134059.020 13593671.688 10 0 59365 85500.00000 0 10939738.542 -20383272.953 10837532.169 10 0 59366 0.00000 0 11495159.152 -21419183.709 7871797.504 10 0 59366 900.00000 0 11759053.240 -22186573.145 4753913.329 10 0 59366 1800.00000 0 11765973.581 -22638058.605 1544188.575 10 0 59366 2700.00000 0 11559897.625 -22736139.691 -1695358.112 10 0 59366 3600.00000 0 11192151.414 -22454851.443 -4902179.596 10 0 59366 4500.00000 0 10719040.098 -21780955.182 -8014388.026 10 0 59366 5400.00000 0 10199284.154 -20714619.029 -10971927.865 10 0 59366 6300.00000 0 9691367.658 -19269559.965 -13717713.427 10 0 59366 7200.00000 0 9250908.379 -17472641.327 -16198710.764 10 0 59366 8100.00000 0 8928158.392 -15362941.419 -18366944.908 10 0 59366 9000.00000 0 8765738.670 -12990330.120 -20180414.686 10 0 59366 9900.00000 0 8796701.628 -10413610.272 -21603898.713 10 0 59366 10800.00000 0 9043002.621 -7698298.087 -22609637.908 10 0 59366 11700.00000 0 9514444.993 -4914131.542 -23177881.680 10 0 59366 12600.00000 0 10208144.353 -2132407.172 -23297286.868 10 0 59366 13500.00000 0 11108536.809 576747.001 -22965160.788 10 0 59366 14400.00000 0 12187933.798 3147051.355 -22187542.073 10 0 59366 15300.00000 0 13407603.598 5518597.365 -20979115.580 10 0 59366 16200.00000 0 14719337.612 7640108.733 -19362960.500 10 0 59366 17100.00000 0 16067438.861 9470846.441 -17370133.775 10 0 59366 18000.00000 0 17391051.641 10982077.079 -15039094.263 10 0 59366 18900.00000 0 18626736.022 12158041.447 -12414976.392 10 0 59366 19800.00000 0 19711179.308 12996380.999 -9548725.516 10 0 59366 20700.00000 0 20583929.547 13508002.313 -6496110.670 10 0 59366 21600.00000 0 21190034.039 13716383.944 -3316633.572 10 0 59366 22500.00000 0 21482468.912 13656354.097 -72355.639 10 0 59366 23400.00000 0 21424253.913 13372390.855 3173332.671 10 0 59366 24300.00000 0 20990159.805 12916517.880 6356974.123 10 0 59366 25200.00000 0 20167933.076 12345886.595 9416311.421 10 0 59366 26100.00000 0 18958983.690 11720149.884 12291530.728 10 0 59366 27000.00000 0 17378505.168 11098741.647 14926454.957 10 0 59366 27900.00000 0 15455021.128 10538180.610 17269661.086 10 0 59366 28800.00000 0 13229377.660 10089515.477 19275497.623 10 0 59366 29700.00000 0 10753224.980 9796021.851 20904981.147 10 0 59366 30600.00000 0 8087053.725 9691249.834 22126553.952 10 0 59366 31500.00000 0 5297870.269 9797505.301 22916688.253 10 0 59366 32400.00000 0 2456610.215 10124828.550 23260326.251 10 0 59366 33300.00000 0 -364600.361 10670512.052 23151149.087 10 0 59366 34200.00000 0 -3095220.652 11419175.679 22591671.467 10 0 59366 35100.00000 0 -5668992.187 12343393.796 21593162.438 10 0 59366 36000.00000 0 -8026445.814 13404845.403 20175396.125 10 0 59366 36900.00000 0 -10117116.030 14555936.605 18366239.540 10 0 59366 37800.00000 0 -11901373.186 15741825.326 16201087.375 10 0 59366 38700.00000 0 -13351800.636 16902761.988 13722156.320 10 0 59366 39600.00000 0 -14454063.082 17976647.213 10977653.762 10 0 59366 40500.00000 0 -15207233.749 18901699.389 8020837.648 10 0 59366 41400.00000 0 -15623570.356 19619120.946 4908985.862 10 0 59366 42300.00000 0 -15727752.304 20075652.834 1702294.876 10 0 59366 43200.00000 0 -15555613.485 20225911.770 -1537271.754 10 0 59366 44100.00000 0 -15152425.354 20034414.089 -4747163.921 10 0 59366 45000.00000 0 -14570802.881 19477203.085 -7865433.005 10 0 59366 45900.00000 0 -13868321.038 18543013.027 -10831906.222 10 0 59366 46800.00000 0 -13104940.845 17233921.878 -13589326.428 10 0 59366 47700.00000 0 -12340351.500 15565465.440 -16084437.210 10 0 59366 48600.00000 0 -11631338.278 13566207.354 -18268994.208 10 0 59366 49500.00000 0 -11029284.828 11276781.115 -20100684.825 10 0 59366 50400.00000 0 -10577913.096 8748441.671 -21543939.849 10 0 59366 51300.00000 0 -10311354.622 6041183.790 -22570622.262 10 0 59366 52200.00000 0 -10252633.835 3221501.991 -23160580.286 10 0 59366 53100.00000 0 -10412627.549 359881.731 -23302053.654 10 0 59366 54000.00000 0 -10789545.738 -2471877.277 -22991924.371 10 0 59366 54900.00000 0 -11368957.641 -5203397.187 -22235805.505 10 0 59366 55800.00000 0 -12124364.968 -7768405.838 -21047964.208 10 0 59366 56700.00000 0 -13018301.245 -10107257.815 -19451077.911 10 0 59366 57600.00000 0 -14003914.246 -12169187.971 -17475825.705 10 0 59366 58500.00000 0 -15026967.639 -13914202.668 -15160320.130 10 0 59366 59400.00000 0 -16028179.549 -15314528.298 -12549387.984 10 0 59366 60300.00000 0 -16945800.476 -16355554.622 -9693712.164 10 0 59366 61200.00000 0 -17718321.685 -17036231.246 -6648850.056 10 0 59366 62100.00000 0 -18287198.435 -17368898.807 -3474147.177 10 0 59366 63000.00000 0 -18599470.740 -17378560.713 -231567.674 10 0 59366 63900.00000 0 -18610167.862 -17101625.627 3015534.072 10 0 59366 64800.00000 0 -18284391.475 -16584174.271 6203674.800 10 0 59366 65700.00000 0 -17598986.026 -15879825.211 9270509.506 10 0 59366 66600.00000 0 -16543722.682 -15047292.127 12156076.721 10 0 59366 67500.00000 0 -15121944.527 -14147738.765 14803994.870 10 0 59366 68400.00000 0 -13350644.305 -13242046.583 17162583.845 10 0 59366 69300.00000 0 -11259971.039 -12388113.706 19185887.860 10 0 59366 70200.00000 0 -8892186.679 -11638301.938 20834578.328 10 0 59366 71100.00000 0 -6300117.800 -11037141.543 22076718.665 10 0 59366 72000.00000 0 -3545169.009 -10619391.581 22888376.290 10 0 59366 72900.00000 0 -694983.025 -10408537.488 23254070.943 10 0 59366 73800.00000 0 2179153.115 -10415788.129 23167052.158 10 0 59366 74700.00000 0 5005046.213 -10639612.604 22629402.498 10 0 59366 75600.00000 0 7712364.793 -11065833.806 21651966.820 10 0 59366 76500.00000 0 10235321.848 -11668271.959 20254111.276 10 0 59366 77400.00000 0 12515161.908 -12409908.264 18463318.914 10 0 59366 78300.00000 0 14502351.102 -13244517.223 16314631.727 10 0 59366 79200.00000 0 16158381.877 -14118697.055 13849951.517 10 0 59366 80100.00000 0 17457120.496 -14974211.552 11117214.348 10 0 59366 81000.00000 0 18385644.789 -15750544.451 8169455.281 10 0 59366 81900.00000 0 18944540.795 -16387559.221 5063781.673 10 0 59366 82800.00000 0 19147649.099 -16828153.379 1860274.758 10 0 59366 83700.00000 0 19021274.227 -17020797.254 -1379159.967 10 0 59366 84600.00000 0 18602892.091 -16921852.239 -4591972.412 10 0 59366 85500.00000 0 17939410.701 -16497572.952 -7716156.126 99